Location: Stoke Bliss
(52.2667°N, 2.5167°W)
Time: 06:41:09
(UTC+00:00)

Envisat - Pass Details

Date: 10 December 2021
Orbit: 764 x 766 km, 98.2° (Epoch: 17 January)

Event Time Altitude Azimuth Distance (km) Brightness Sun altitude
Rises 16:26:40 0° 176° (S) 3,222 6.6 -4.5°
Reaches altitude 10° 16:29:00 10° 180° (S) 2,300 6.0 -4.8°
Maximum altitude 16:33:59 58° 259° (W) 896 3.8 -5.5°
Drops below altitude 10° 16:39:02 10° 339° (NNW) 2,317 5.4 -6.1°
Sets 16:41:23 0° 343° (NNW) 3,247 6.1 -6.4°
